Orbital Elements at Epoch 2459200.5 (2020-Dec-17.0) TDB
Reference: JPL 28 (heliocentric ecliptic J2000)
Element | Value | Uncertainty (1-sigma) | Units |
e | .115281922425287 | 3.7095e-08 | |
a | 2.643829981188065 | 1.339e-08 | au |
q | 2.339044178391095 | 1.035e-07 | au |
i | 14.6157171340165 | 3.9507e-06 | deg |
node | 147.7807228537991 | 1.3548e-05 | deg |
peri | 276.6174209204563 | 2.2726e-05 | deg |
M | 315.3132852881928 | 1.9557e-05 | deg |
tp | 2459395.405743967705 (2021-Jun-29.90574397) | 8.5842e-05 | TDB |
period | 1570.177362128489 4.30 | 1.1929e-05 3.266e-08 | d yr |
n | .229273462146973 | 1.7418e-09 | deg/d |
Q | 2.948615783985036 | 1.4934e-08 | au |
|
| | Orbit Determination Parameters
Additional Information
|